SCP
0 0 0 0 0 0 0 0 0 0 0 0 0 0 0 0 0 0 0 0 0 0 0 0 0 0 0 0 0 0 0 0 0 0 0 0 0 0 0 0 0 0 0 0 0 0 0
0 0 0 0 0 0 0 0 0 0 0 0 0 0 0 0 0 0 0 0 0 0 0 0 0 0 0 0 0 0 0 0 0 0 0 0 0 0 0 0 0 0 0 0 0 0 0
0 0 0 0 0 0 0 0 0 0 0 0 0 0 0 0 0 0 0 0 0 0 0 0 0 0 0 0 0 0 0 0 0 0 0 0 0 0 0 0 0 0 0 0 0 0 0
0 0 0 0 0 0 0 0 0 0 0 -0 -0 -0 -0 -0 -0 -0 -0 -0 -0 -0 -0 0 0 0 0 0 0 0 0 0 0 0 0 0 0 0 0 0 0 0 0 0 0 0 0
0 0 0 0 0 0 0 0 -0 -0 -0 -0 -0 -0 0 -0 -0 -0 -0 -0 -0 -0 -0 -0 0 0 0 0 0 0 0 0 0 0 0 0 0 0 0 0 0 0 0 0 0 0 0
0 0 0 0 0 0 0 0 0 -0 0 0 0 0 0 -0 -0 -0 -0 -0 -0 -0 0 0 0 0 0 0 0 0 0 -0 0 0 0 0 0 0 0 0 0 0 0 0 0 0 0
0 0 0 0 0 0 0 0 0 0 0 0 0 0 0 0 0 0 0 -0 -0 -0 0 0 0 0 0 0 0 0 0 0 0 0 0 0 0 0 0 0 0 0 0 0 0 0 0
0 0 0 0 0 0 0 0 0 0 0 0 0 0 0 0 0 -0 -0 -0 0 0 0 0 0 -0 -0 0 0 0 0 0 0 0 0 0 0 0 0 0 0 0 0 0 0 0 0
0 0 0 0 0 0 0 0 0 0 0 0 0 0 0 0 0 0 -0 0 0 0 0 0 0 0 0 -0 0 0 0 0 0 0 0 0 0 0 0 0 0 0 0 0 0 0 0
0 0 0 0 0 0 0 0 0 0 0 0 0 0 0 0 0 0 0 0 0 0 0 0 0 0 0 -0 0 0 0 0 0 0 0 0 0 0 0 0 0 0 0 0 0 0 0
0 0 0 0 0 0 0 0 0 0 0 0 0 0 0 0 0 0 0 0 0 0 0 0 0 0 0 0 0 0 0 0 0 -0 0 0 0 0 0 0 0 0 0 0 0 0 0
0 0 0 0 0 0 0 0 0 0 0 0 0 0 0 0 0 0 0 0 0 0 0 0 0 0 0 0 0 0 0 0 0 0 0 0 0 0 0 0 0 0 0 0 0 0 0
0 0 0 0 0 0 0 0 0 0 0 0 0 0 0 0 0 0 0 0 0 0 0 0 -0 0 0 0 0 0 0 0 0 -0 -0 0 0 0 0 0 0 0 0 0 0 0 0
0 0 0 0 0 0 0 0 0 0 0 0 0 0 0 0 0 0 0 0 0 0 -0 -0 -0 -0 -0 -0 0 0 -0 0 0 0 -0 -0 0 -0 0 0 0 0 0 0 0 0 0
0 0 0 0 0 0 0 0 0 0 0 0 0 0 0 0 0 0 0 0 -0 0 -0 -0 -0 -0 0 0 0 0 -0 -0 0 0 -0 -0 -0 0 -0 0 0 0 0 0 0 0 0
0 0 0 0 0 0 0 0 0 0 0 0 0 0 0 0 0 0 0 -0 -0 -0 -0 0 0 0 0 0 0 0 0 -0 -0 0 0 -0 0 -0 0 0 0 0 0 0 0 0 0
0 0 0 0 0 0 0 0 0 0 0 0 0 0 0 0 0 0 0 0 -0 -0 -0 0 0 0 0 0 0 0 -0 -0 0 -0 -0 0 -0 -0 0 -0 0 0 0 0 0 0 0
0 0 0 0 0 0 0 0 0 0 0 0 0 0 0 0 0 0 -0 -0 -0 -0 -0 0 -0 -0 -0 0 0 0 0 0 -0 0 0 -0 -0 -0 -0 0 0 0 0 0 0 0 0
0 0 0 0 0 0 0 0 0 0 0 0 0 0 0 0 0 0 -0 -0 -0 0 -0 -0 -0 0 0 0 0 0 -0 0 -0 -0 0 0 0 0 -0 0 0 0 0 0 0 0 0
0 0 0 0 0 0 0 0 0 0 0 0 0 0 0 0 0 -0 -0 -0 -0 -0 -0 -0 -0 -0 -0 -0 0 0 -0 -0 -0 -0 -0 -0 0 0 0 -0 0 0 0 0 0 0 0
0 0 0 0 0 0 0 0 0 0 0 0 0 0 0 0 0 -0 -0 -0 -0 -0 0 0 0 0 0 -0 -0 -0 0 -0 -0 -0 0 0 0 -0 0 -0 0 0 0 0 0 0 0
0 0 0 0 0 0 0 0 0 0 0 0 0 0 0 0 0 -0 -0 -0 -0 -0 -0 -0 0 -0 -0 0 -0 -0 -0 -0 -0 0 0 -0 0 0 -0 0 0 0 0 0 0 0 0
0 0 0 0 0 0 0 0 0 0 0 0 0 0 0 0 0 -0 -0 -0 -0 -0 0 0 -0 -0 0 0 -0 -0 -0 -0 -0 0 -0 0 0 0 0 0 0 0 0 0 0 0 0
0 0 0 0 0 0 0 0 0 0 0 0 0 0 0 0 -0 -0 -0 -0 -0 -0 -0 -0 0 0 0 -0 -0 -0 -0 -0 0 0 -0 0 0 0 0 0 0 0 0 0 0 0 0
0 0 0 0 0 0 0 0 0 0 0 0 0 0 0 0 -0 -0 -0 -0 0 0 0 0 -0 -0 -0 0 0 0 0 0 0 0 -0 -0 0 0 0 0 0 0 0 0 0 0 0
0 0 0 0 0 0 0 -0 0 0 0 0 0 0 0 0 0 -0 -0 0 0 0 0 0 -0 -0 -0 0 0 0 0 0 0 0 -0 0 0 0 0 0 0 0 0 0 0 0 0
0 0 0 0 0 0 -0 -0 -0 -0 -0 0 0 0 0 0 0 0 0 0 0 0 0 -0 -0 0 0 0 0 0 0 0 0 0 0 0 0 0 0 0 0 0 0 -0 0 0 0
0 0 0 0 0 0 -0 -0 -0 -0 -0 0 0 0 0 0 -0 0 0 0 0 0 0 0 0 0 0 0 0 0 0 0 0 0 0 0 0 0 0 0 0 0 0 0 -0 0 0
0 0 0 0 0 0 0 -0 -0 -0 -0 0 0 0 0 0 -0 -0 -0 -0 0 0 0 0 0 0 0 0 0 0 0 0 0 0 0 0 0 0 0 0 0 0 0 0 0 0 -0
Wind_Speed_500mb
47 48 49 50 51 52 54 54 53 52 53 55 55 54 54 55 54 52 52 55 58 59 60 59 49 44 26 23 56 44 44 34 28 20 41 56 60 43 30 23 24 35 26 31 50 36 34
51 52 53 54 56 57 56 55 54 53 54 53 53 56 58 59 60 60 61 60 56 58 59 54 51 29 22 35 40 10 30 53 50 47 45 50 37 50 32 20 43 12 44 45 36 42 38
53 55 58 60 60 60 59 58 59 60 60 60 61 63 65 64 64 65 66 67 66 66 63 60 54 34 44 89 51 32 26 23 29 39 43 49 27 43 23 11 47 21 22 24 38 46 30
57 58 60 61 59 58 59 61 61 62 62 62 62 63 65 65 64 66 71 76 60 59 64 62 51 32 37 43 57 68 60 61 43 45 47 39 43 33 17 11 6 24 36 41 27 23 22
61 63 64 62 60 60 59 62 62 61 61 62 63 67 70 73 74 74 81 62 62 30 38 38 19 28 31 32 28 15 23 41 44 54 49 32 16 32 29 23 19 27 31 38 30 39 27
65 66 64 62 62 63 63 62 61 61 64 68 71 75 77 79 85 87 79 74 21 25 10 14 10 12 26 23 21 12 9 19 13 34 43 32 25 24 30 38 43 38 46 27 34 25 47
68 67 66 65 65 64 65 65 68 72 75 78 79 81 82 86 91 83 69 68 30 7 8 24 38 51 64 61 21 18 15 23 15 24 26 48 25 51 89 61 31 19 33 43 30 21 35
67 66 66 66 67 68 69 70 72 74 77 81 81 81 80 86 85 58 57 27 11 18 36 48 71 75 87 59 47 64 21 18 26 30 32 28 57 69 27 42 43 33 33 34 23 37 28
67 67 67 67 68 68 69 73 76 77 79 80 80 78 79 86 64 52 36 28 11 29 16 38 21 30 26 21 25 35 46 66 34 34 46 46 53 48 48 39 49 51 39 26 12 22 36
68 67 67 68 70 70 71 75 78 78 80 79 77 76 77 77 28 48 27 34 25 29 10 15 9 11 9 13 13 17 22 29 39 42 38 44 56 34 61 58 51 52 50 31 26 26 21
68 66 66 67 69 71 73 76 78 79 79 79 79 76 75 49 40 42 43 37 22 2 13 4 5 7 3 11 27 6 24 34 26 41 31 55 46 48 43 55 50 45 34 44 32 17 10
66 67 66 68 70 71 73 76 77 79 80 81 79 75 70 24 36 48 40 29 6 7 15 11 3 20 20 29 26 18 19 12 6 17 33 56 51 39 54 45 46 26 34 40 34 21 21
66 66 67 69 70 71 73 73 75 78 80 81 80 75 35 32 41 43 30 16 8 10 18 11 19 33 39 36 35 18 26 20 14 10 11 16 55 50 42 58 48 44 43 19 22 20 24
66 65 66 68 70 70 68 72 74 75 80 84 84 65 21 42 46 33 18 6 13 12 21 35 28 50 34 29 7 16 18 19 13 6 7 9 16 56 48 40 35 60 53 21 28 32 37
65 65 66 68 69 67 66 70 71 74 80 84 84 44 34 62 53 25 8 7 8 14 18 20 40 23 11 4 16 18 15 29 25 30 17 8 14 25 46 43 51 61 46 28 12 20 20
64 66 66 67 66 62 64 67 69 74 80 83 75 33 46 59 37 23 4 13 9 32 17 15 10 9 16 16 8 7 7 7 14 27 25 9 10 6 51 54 39 53 56 31 11 22 21
64 65 65 66 62 58 60 64 68 73 79 80 54 20 46 51 29 19 10 15 29 45 47 10 14 15 11 11 5 6 10 25 13 26 19 14 9 9 27 40 42 19 37 31 19 5 13
63 64 64 62 57 57 57 59 63 69 77 81 29 8 44 47 20 11 15 25 45 25 39 14 17 7 7 13 10 8 8 7 33 22 12 8 4 9 12 19 29 42 55 52 28 19 4
61 61 62 58 55 54 55 60 62 63 68 71 32 12 30 35 16 20 27 27 25 24 34 11 10 7 18 17 12 12 14 15 26 27 10 5 4 7 6 9 20 40 44 48 37 8 16
59 59 58 55 52 51 54 56 58 57 60 52 20 10 15 13 36 24 37 19 28 51 28 44 22 15 33 30 7 20 25 14 51 34 40 8 6 11 11 10 6 31 47 58 32 18 21
59 59 56 52 49 49 47 49 55 54 52 42 19 7 8 15 22 32 35 20 42 28 13 36 11 28 38 14 39 12 21 35 20 27 8 4 10 14 23 22 29 51 47 48 40 36 21
57 57 55 50 48 46 37 46 50 52 48 32 14 11 14 22 32 32 22 21 36 38 25 27 19 52 43 31 35 49 35 9 13 12 14 19 7 6 12 21 34 53 44 47 35 25 22
55 54 52 49 44 44 34 39 44 47 46 24 36 34 17 21 16 21 17 36 42 45 28 33 43 42 38 36 31 45 47 37 31 23 9 7 5 7 5 2 30 37 49 35 44 34 19
53 52 52 47 41 39 38 35 39 40 38 37 40 43 12 16 22 25 41 38 48 48 39 69 68 29 28 76 82 51 44 33 33 31 25 16 8 4 6 7 8 12 40 34 28 21 16
51 51 51 47 41 40 43 40 30 36 39 37 35 30 10 18 35 31 39 43 62 54 42 45 66 53 69 47 8 9 3 5 17 24 30 27 7 6 6 3 18 20 38 31 33 10 7
51 52 50 47 40 39 39 35 22 35 39 38 34 27 27 22 7 53 44 46 31 27 21 21 65 52 24 5 5 6 5 3 3 4 20 15 12 2 8 7 6 9 3 25 23 13 12
50 51 51 46 40 38 36 34 31 36 36 34 35 27 28 25 36 35 30 27 23 15 12 32 32 19 12 6 5 5 5 8 4 2 5 4 4 7 8 7 10 16 18 44 24 14 34
51 50 49 44 40 37 39 34 32 31 30 37 39 32 24 27 74 34 33 45 53 38 11 44 21 2 6 12 6 7 5 6 3 4 5 4 3 4 2 9 9 32 7 12 13 38 59
50 50 47 42 39 38 39 39 38 32 25 35 43 39 37 43 69 78 50 27 33 46 47 10 15 18 9 6 5 7 5 6 6 4 12 9 10 6 11 6 9 17 17 33 38 61 56
Wind_Direction_500mb
18 14 12 9 6 2 359 358 356 355 354 352 349 346 342 339 336 331 326 323 320 316 313 311 309 306 305 267 251 265 259 239 238 230 201 189 186 194 201 210 207 231 230 218 233 239 231
13 10 7 5 3 359 357 357 357 357 355 352 348 344 342 341 338 334 329 325 318 310 304 300 300 293 268 262 283 276 244 236 241 249 224 199 204 202 209 209 209 230 224 234 236 237 240
9 6 3 1 359 357 357 357 357 358 356 353 349 346 344 342 340 335 331 326 320 311 299 293 286 264 244 249 262 266 244 224 237 226 219 219 220 189 202 205 230 216 229 232 237 235 239
6 3 0 358 358 358 357 356 356 356 354 351 349 347 345 341 341 338 332 329 324 309 292 288 275 237 249 265 277 264 259 249 231 222 212 207 209 229 210 213 125 217 239 242 207 196 218
4 2 359 359 359 358 357 356 356 355 353 349 348 349 348 343 345 342 336 334 327 303 287 283 209 207 268 285 275 292 256 249 238 215 209 202 200 211 208 213 212 205 226 225 230 213 205
2 0 360 0 359 357 357 357 357 355 352 350 350 349 347 342 342 341 337 339 337 321 34 85 131 198 251 251 281 266 256 210 179 199 219 217 204 200 213 203 215 210 215 209 206 189 213
360 360 360 358 358 358 355 355 356 354 352 350 349 347 346 341 341 341 339 349 337 310 232 255 261 252 265 261 271 251 259 181 159 167 186 190 199 208 207 206 234 225 205 215 206 193 195
360 359 358 357 357 355 353 353 353 352 348 346 347 345 343 337 342 348 348 1 338 308 298 270 267 261 260 263 277 257 234 197 192 208 193 176 218 221 218 216 222 229 214 213 203 217 207
358 357 357 357 354 354 351 350 350 350 346 345 344 344 340 338 342 354 355 350 309 334 278 299 247 249 266 209 224 272 211 227 229 233 207 202 226 218 205 208 210 220 218 197 168 180 210
356 357 356 354 352 351 350 348 348 347 345 343 343 343 338 337 349 351 348 332 308 320 290 274 236 262 192 182 225 264 214 192 212 234 228 232 233 196 210 212 203 216 216 217 199 193 189
355 355 353 352 350 349 348 347 347 346 343 341 343 344 337 333 338 350 333 332 320 236 296 55 242 94 145 210 313 237 203 176 230 210 199 229 225 227 234 212 206 223 186 205 212 206 194
353 353 352 350 350 349 348 347 346 346 343 344 343 343 332 332 337 332 328 326 311 253 253 310 295 347 330 308 283 276 183 196 197 210 246 256 252 222 214 201 203 200 179 193 209 228 237
352 351 351 350 348 350 349 349 349 347 345 346 344 345 339 345 335 336 325 320 258 234 329 320 332 329 318 301 305 251 230 201 227 217 215 247 242 241 214 213 194 199 166 155 185 197 216
351 350 350 348 349 351 351 350 349 349 346 348 346 343 3 360 350 344 330 242 241 288 298 314 318 315 298 296 292 339 318 282 215 182 273 265 242 221 211 197 183 192 182 174 174 188 204
349 350 349 349 349 351 353 352 353 351 347 350 349 5 18 359 349 342 334 264 305 345 318 306 310 281 280 246 346 326 284 271 258 193 206 247 226 272 209 215 172 192 195 194 135 184 162
348 348 348 350 349 357 356 358 355 354 350 353 352 2 8 356 355 340 291 324 303 325 306 287 282 291 302 312 266 262 290 311 321 205 214 251 281 260 208 191 217 185 196 203 217 168 179
346 348 348 348 351 357 355 356 355 353 351 354 357 356 360 7 7 8 17 315 315 319 318 300 300 288 292 318 251 293 307 304 15 320 212 269 251 203 173 220 193 205 191 203 208 229 183
346 347 347 348 352 353 354 356 353 352 352 360 357 350 355 6 26 355 345 323 305 315 330 296 288 313 347 297 299 292 260 269 322 343 271 240 236 259 224 183 242 202 192 195 189 195 192
344 345 346 349 353 351 355 356 352 350 358 352 341 303 351 13 14 350 336 323 330 333 324 322 298 345 349 329 307 297 301 294 338 340 295 220 236 292 182 107 244 194 195 198 199 156 192
343 343 345 349 349 352 357 358 354 350 357 0 352 340 335 355 355 336 334 329 332 331 305 334 290 292 339 324 314 299 293 313 331 315 299 249 245 245 263 267 282 181 192 194 193 190 170
342 342 344 346 347 352 360 1 358 352 357 8 3 343 298 320 335 329 327 305 331 342 317 319 282 316 331 300 310 254 307 316 310 355 1 299 271 257 261 255 253 184 184 174 187 200 199
340 341 344 341 345 353 358 359 358 355 352 3 353 336 297 290 311 323 336 328 321 323 321 303 294 308 306 288 279 288 290 298 283 348 7 343 280 306 289 266 195 181 181 186 183 171 138
338 339 340 340 344 353 354 352 356 358 351 346 345 329 284 291 322 330 327 322 310 322 305 289 298 304 299 295 284 281 275 268 261 283 317 290 311 337 297 346 147 175 176 181 192 204 170
336 335 337 337 340 344 351 346 346 354 348 337 337 326 302 305 316 321 307 314 313 310 293 294 300 294 282 304 299 283 262 248 241 245 238 262 324 297 284 132 187 142 170 158 154 169 154
332 333 335 334 334 339 340 348 338 346 343 331 331 323 299 303 303 302 318 312 309 308 294 288 292 299 304 306 289 299 239 202 216 227 222 217 227 277 254 140 106 109 177 158 158 99 113
330 333 331 331 330 335 342 345 339 339 340 332 328 328 299 303 300 314 309 309 309 314 305 285 312 320 314 293 294 300 338 334 2 265 208 163 116 164 295 76 93 101 173 195 126 161 174
327 329 328 330 328 332 340 335 331 329 335 328 321 329 303 277 288 302 301 301 295 288 277 302 335 322 332 321 308 317 319 348 287 306 184 147 148 210 231 101 73 3 309 155 169 169 154
325 326 327 328 325 329 332 329 323 319 325 328 317 325 300 281 294 280 289 287 285 285 282 301 318 217 298 348 341 339 295 335 324 322 189 145 173 58 353 89 87 350 304 158 115 120 134
322 323 323 325 323 321 327 328 325 316 315 324 313 322 312 283 278 304 302 296 284 291 276 276 272 288 268 323 310 304 291 303 293 22 25 41 31 79 47 41 10 26 65 109 116 118 116
Wind_Speed_850mb
47 48 49 50 51 52 54 54 53 52 53 55 55 54 54 55 54 52 52 55 58 59 60 59 49 44 26 23 56 44 44 34 28 20 41 56 60 43 30 23 24 35 26 31 50 36 34
51 52 53 54 56 57 56 55 54 53 54 53 53 56 58 59 60 60 61 60 56 58 59 54 51 29 22 35 40 10 30 53 50 47 45 50 37 50 32 20 43 12 44 45 36 42 38
53 55 58 60 60 60 59 58 59 60 60 60 61 63 65 64 64 65 66 67 66 66 63 60 54 34 44 89 51 32 26 23 29 39 43 49 27 43 23 11 47 21 22 24 38 46 30
57 58 60 61 59 58 59 61 61 62 62 62 62 63 65 65 64 66 71 76 60 59 64 62 51 32 37 43 57 68 60 61 43 45 47 39 43 33 17 11 6 24 36 41 27 23 22
61 63 64 62 60 60 59 62 62 61 61 62 63 67 70 73 74 74 81 62 62 30 38 38 19 28 31 32 28 15 23 41 44 54 49 32 16 32 29 23 19 27 31 38 30 39 27
65 66 64 62 62 63 63 62 61 61 64 68 71 75 77 79 85 87 79 74 21 25 10 14 10 12 26 23 21 12 9 19 13 34 43 32 25 24 30 38 43 38 46 27 34 25 47
68 67 66 65 65 64 65 65 68 72 75 78 79 81 82 86 91 83 69 68 30 7 8 24 38 51 64 61 21 18 15 23 15 24 26 48 25 51 89 61 31 19 33 43 30 21 35
67 66 66 66 67 68 69 70 72 74 77 81 81 81 80 86 85 58 57 27 11 18 36 48 71 75 87 59 47 64 21 18 26 30 32 28 57 69 27 42 43 33 33 34 23 37 28
67 67 67 67 68 68 69 73 76 77 79 80 80 78 79 86 64 52 36 28 11 29 16 38 21 30 26 21 25 35 46 66 34 34 46 46 53 48 48 39 49 51 39 26 12 22 36
68 67 67 68 70 70 71 75 78 78 80 79 77 76 77 77 28 48 27 34 25 29 10 15 9 11 9 13 13 17 22 29 39 42 38 44 56 34 61 58 51 52 50 31 26 26 21
68 66 66 67 69 71 73 76 78 79 79 79 79 76 75 49 40 42 43 37 22 2 13 4 5 7 3 11 27 6 24 34 26 41 31 55 46 48 43 55 50 45 34 44 32 17 10
66 67 66 68 70 71 73 76 77 79 80 81 79 75 70 24 36 48 40 29 6 7 15 11 3 20 20 29 26 18 19 12 6 17 33 56 51 39 54 45 46 26 34 40 34 21 21
66 66 67 69 70 71 73 73 75 78 80 81 80 75 35 32 41 43 30 16 8 10 18 11 19 33 39 36 35 18 26 20 14 10 11 16 55 50 42 58 48 44 43 19 22 20 24
66 65 66 68 70 70 68 72 74 75 80 84 84 65 21 42 46 33 18 6 13 12 21 35 28 50 34 29 7 16 18 19 13 6 7 9 16 56 48 40 35 60 53 21 28 32 37
65 65 66 68 69 67 66 70 71 74 80 84 84 44 34 62 53 25 8 7 8 14 18 20 40 23 11 4 16 18 15 29 25 30 17 8 14 25 46 43 51 61 46 28 12 20 20
64 66 66 67 66 62 64 67 69 74 80 83 75 33 46 59 37 23 4 13 9 32 17 15 10 9 16 16 8 7 7 7 14 27 25 9 10 6 51 54 39 53 56 31 11 22 21
64 65 65 66 62 58 60 64 68 73 79 80 54 20 46 51 29 19 10 15 29 45 47 10 14 15 11 11 5 6 10 25 13 26 19 14 9 9 27 40 42 19 37 31 19 5 13
63 64 64 62 57 57 57 59 63 69 77 81 29 8 44 47 20 11 15 25 45 25 39 14 17 7 7 13 10 8 8 7 33 22 12 8 4 9 12 19 29 42 55 52 28 19 4
61 61 62 58 55 54 55 60 62 63 68 71 32 12 30 35 16 20 27 27 25 24 34 11 10 7 18 17 12 12 14 15 26 27 10 5 4 7 6 9 20 40 44 48 37 8 16
59 59 58 55 52 51 54 56 58 57 60 52 20 10 15 13 36 24 37 19 28 51 28 44 22 15 33 30 7 20 25 14 51 34 40 8 6 11 11 10 6 31 47 58 32 18 21
59 59 56 52 49 49 47 49 55 54 52 42 19 7 8 15 22 32 35 20 42 28 13 36 11 28 38 14 39 12 21 35 20 27 8 4 10 14 23 22 29 51 47 48 40 36 21
57 57 55 50 48 46 37 46 50 52 48 32 14 11 14 22 32 32 22 21 36 38 25 27 19 52 43 31 35 49 35 9 13 12 14 19 7 6 12 21 34 53 44 47 35 25 22
55 54 52 49 44 44 34 39 44 47 46 24 36 34 17 21 16 21 17 36 42 45 28 33 43 42 38 36 31 45 47 37 31 23 9 7 5 7 5 2 30 37 49 35 44 34 19
53 52 52 47 41 39 38 35 39 40 38 37 40 43 12 16 22 25 41 38 48 48 39 69 68 29 28 76 82 51 44 33 33 31 25 16 8 4 6 7 8 12 40 34 28 21 16
51 51 51 47 41 40 43 40 30 36 39 37 35 30 10 18 35 31 39 43 62 54 42 45 66 53 69 47 8 9 3 5 17 24 30 27 7 6 6 3 18 20 38 31 33 10 7
51 52 50 47 40 39 39 35 22 35 39 38 34 27 27 22 7 53 44 46 31 27 21 21 65 52 24 5 5 6 5 3 3 4 20 15 12 2 8 7 6 9 3 25 23 13 12
50 51 51 46 40 38 36 34 31 36 36 34 35 27 28 25 36 35 30 27 23 15 12 32 32 19 12 6 5 5 5 8 4 2 5 4 4 7 8 7 10 16 18 44 24 14 34
51 50 49 44 40 37 39 34 32 31 30 37 39 32 24 27 74 34 33 45 53 38 11 44 21 2 6 12 6 7 5 6 3 4 5 4 3 4 2 9 9 32 7 12 13 38 59
50 50 47 42 39 38 39 39 38 32 25 35 43 39 37 43 69 78 50 27 33 46 47 10 15 18 9 6 5 7 5 6 6 4 12 9 10 6 11 6 9 17 17 33 38 61 56
Wind_Direction_850mb
18 14 12 9 6 2 359 358 356 355 354 352 349 346 342 339 336 331 326 323 320 316 313 311 309 306 305 267 251 265 259 239 238 230 201 189 186 194 201 210 207 231 230 218 233 239 231
13 10 7 5 3 359 357 357 357 357 355 352 348 344 342 341 338 334 329 325 318 310 304 300 300 293 268 262 283 276 244 236 241 249 224 199 204 202 209 209 209 230 224 234 236 237 240
9 6 3 1 359 357 357 357 357 358 356 353 349 346 344 342 340 335 331 326 320 311 299 293 286 264 244 249 262 266 244 224 237 226 219 219 220 189 202 205 230 216 229 232 237 235 239
6 3 0 358 358 358 357 356 356 356 354 351 349 347 345 341 341 338 332 329 324 309 292 288 275 237 249 265 277 264 259 249 231 222 212 207 209 229 210 213 125 217 239 242 207 196 218
4 2 359 359 359 358 357 356 356 355 353 349 348 349 348 343 345 342 336 334 327 303 287 283 209 207 268 285 275 292 256 249 238 215 209 202 200 211 208 213 212 205 226 225 230 213 205
2 0 360 0 359 357 357 357 357 355 352 350 350 349 347 342 342 341 337 339 337 321 34 85 131 198 251 251 281 266 256 210 179 199 219 217 204 200 213 203 215 210 215 209 206 189 213
360 360 360 358 358 358 355 355 356 354 352 350 349 347 346 341 341 341 339 349 337 310 232 255 261 252 265 261 271 251 259 181 159 167 186 190 199 208 207 206 234 225 205 215 206 193 195
360 359 358 357 357 355 353 353 353 352 348 346 347 345 343 337 342 348 348 1 338 308 298 270 267 261 260 263 277 257 234 197 192 208 193 176 218 221 218 216 222 229 214 213 203 217 207
358 357 357 357 354 354 351 350 350 350 346 345 344 344 340 338 342 354 355 350 309 334 278 299 247 249 266 209 224 272 211 227 229 233 207 202 226 218 205 208 210 220 218 197 168 180 210
356 357 356 354 352 351 350 348 348 347 345 343 343 343 338 337 349 351 348 332 308 320 290 274 236 262 192 182 225 264 214 192 212 234 228 232 233 196 210 212 203 216 216 217 199 193 189
355 355 353 352 350 349 348 347 347 346 343 341 343 344 337 333 338 350 333 332 320 236 296 55 242 94 145 210 313 237 203 176 230 210 199 229 225 227 234 212 206 223 186 205 212 206 194
353 353 352 350 350 349 348 347 346 346 343 344 343 343 332 332 337 332 328 326 311 253 253 310 295 347 330 308 283 276 183 196 197 210 246 256 252 222 214 201 203 200 179 193 209 228 237
352 351 351 350 348 350 349 349 349 347 345 346 344 345 339 345 335 336 325 320 258 234 329 320 332 329 318 301 305 251 230 201 227 217 215 247 242 241 214 213 194 199 166 155 185 197 216
351 350 350 348 349 351 351 350 349 349 346 348 346 343 3 360 350 344 330 242 241 288 298 314 318 315 298 296 292 339 318 282 215 182 273 265 242 221 211 197 183 192 182 174 174 188 204
349 350 349 349 349 351 353 352 353 351 347 350 349 5 18 359 349 342 334 264 305 345 318 306 310 281 280 246 346 326 284 271 258 193 206 247 226 272 209 215 172 192 195 194 135 184 162
348 348 348 350 349 357 356 358 355 354 350 353 352 2 8 356 355 340 291 324 303 325 306 287 282 291 302 312 266 262 290 311 321 205 214 251 281 260 208 191 217 185 196 203 217 168 179
346 348 348 348 351 357 355 356 355 353 351 354 357 356 360 7 7 8 17 315 315 319 318 300 300 288 292 318 251 293 307 304 15 320 212 269 251 203 173 220 193 205 191 203 208 229 183
346 347 347 348 352 353 354 356 353 352 352 360 357 350 355 6 26 355 345 323 305 315 330 296 288 313 347 297 299 292 260 269 322 343 271 240 236 259 224 183 242 202 192 195 189 195 192
344 345 346 349 353 351 355 356 352 350 358 352 341 303 351 13 14 350 336 323 330 333 324 322 298 345 349 329 307 297 301 294 338 340 295 220 236 292 182 107 244 194 195 198 199 156 192
343 343 345 349 349 352 357 358 354 350 357 0 352 340 335 355 355 336 334 329 332 331 305 334 290 292 339 324 314 299 293 313 331 315 299 249 245 245 263 267 282 181 192 194 193 190 170
342 342 344 346 347 352 360 1 358 352 357 8 3 343 298 320 335 329 327 305 331 342 317 319 282 316 331 300 310 254 307 316 310 355 1 299 271 257 261 255 253 184 184 174 187 200 199
340 341 344 341 345 353 358 359 358 355 352 3 353 336 297 290 311 323 336 328 321 323 321 303 294 308 306 288 279 288 290 298 283 348 7 343 280 306 289 266 195 181 181 186 183 171 138
338 339 340 340 344 353 354 352 356 358 351 346 345 329 284 291 322 330 327 322 310 322 305 289 298 304 299 295 284 281 275 268 261 283 317 290 311 337 297 346 147 175 176 181 192 204 170
336 335 337 337 340 344 351 346 346 354 348 337 337 326 302 305 316 321 307 314 313 310 293 294 300 294 282 304 299 283 262 248 241 245 238 262 324 297 284 132 187 142 170 158 154 169 154
332 333 335 334 334 339 340 348 338 346 343 331 331 323 299 303 303 302 318 312 309 308 294 288 292 299 304 306 289 299 239 202 216 227 222 217 227 277 254 140 106 109 177 158 158 99 113
330 333 331 331 330 335 342 345 339 339 340 332 328 328 299 303 300 314 309 309 309 314 305 285 312 320 314 293 294 300 338 334 2 265 208 163 116 164 295 76 93 101 173 195 126 161 174
327 329 328 330 328 332 340 335 331 329 335 328 321 329 303 277 288 302 301 301 295 288 277 302 335 322 332 321 308 317 319 348 287 306 184 147 148 210 231 101 73 3 309 155 169 169 154
325 326 327 328 325 329 332 329 323 319 325 328 317 325 300 281 294 280 289 287 285 285 282 301 318 217 298 348 341 339 295 335 324 322 189 145 173 58 353 89 87 350 304 158 115 120 134
322 323 323 325 323 321 327 328 325 316 315 324 313 322 312 283 278 304 302 296 284 291 276 276 272 288 268 323 310 304 291 303 293 22 25 41 31 79 47 41 10 26 65 109 116 118 116